Buckland, AK

7:28 AM AKDT on August 30, 2016 (GMT -0800)
Buckland

Weather History for PABL - November, 2012

Change the Weather History Date:

Friday, November 16, 2012

  Actual Average (PASK) Record (PASK)
Temperature  
Mean Temperature -8 °F -  
Max Temperature 1 °F 14 °F 30 °F (1996)
Min Temperature -16 °F 4 °F -23 °F (2015)
Degree Days  
Heating Degree Days 72    
Moisture  
Dew Point -15 °F    
Average Humidity 77    
Maximum Humidity 100    
Minimum Humidity 38    
Precipitation  
Precipitation 0.00 in - - ()
Sea Level Pressure  
Sea Level Pressure 30.30 in    
Wind  
Wind Speed 2 mph (SSE)    
Max Wind Speed 8 mph    
Max Gust Speed -    
Visibility 10 miles    
Events      
Averages and records for this station are not official NWS values.
T = Trace of Precipitation, MM = Missing Value Source: NWS Daily Summary

Daily Weather History Graph

Daily Weather History Graph

Search for Another Location

Airport or City:

Trip Planner

Search our weather history database for the weather conditions in past years. The results will help you decide how hot, cold, wet, or windy it might be!

Date:

Astronomy

Nov. 16, 2012 Rise Set
Actual Time 10:38 AM AKST 4:19 PM AKST
Civil Twilight 9:29 AM AKST 5:28 PM AKST
Nautical Twilight 8:22 AM AKST 6:35 PM AKST
Astronomical Twilight 7:22 AM AKST 7:35 PM AKST
Moon 2:09 PM AKST (11/16) 7:11 PM AKST (11/16)
Length of Visible Light 7h 59m
Length of Day
5h 41m
Waxing Crescent, 13% of the Moon is Illuminated
Nov 16
Waxing Crescent
Nov 20
First Quarter
Nov 28
Full
Dec 6
Last Quarter
Dec 12
New

Hourly Weather History & Observations

Time (AKST) Temp. Windchill Dew Point Humidity Pressure Visibility Wind Dir Wind Speed Gust Speed Precip Events Conditions
12:16 AM 1.4 °F - 1.4 °F 100% 30.34 in 10.0 mi Calm Calm - N/A   Clear
12:36 AM -5.8 °F - -20.2 °F 50% 30.34 in 10.0 mi Calm Calm - N/A   Clear
12:56 AM -5.8 °F - -5.8 °F 100% 30.35 in 10.0 mi Calm Calm - N/A   Clear
1:16 AM -5.8 °F -16.7 °F -7.6 °F 92% 30.35 in 10.0 mi SSW 4.6 mph - N/A   Clear
1:36 AM -5.8 °F - -11.2 °F 77% 30.35 in 10.0 mi Calm Calm - N/A   Clear
1:56 AM -4.0 °F - -11.2 °F 71% 30.34 in 10.0 mi Calm Calm - N/A   Clear
2:16 AM -2.2 °F -10.4 °F -2.2 °F 100% 30.34 in 10.0 mi ESE 3.5 mph - N/A   Clear
2:36 AM 1.4 °F - 1.4 °F 100% 30.34 in 10.0 mi Calm Calm - N/A   Clear
2:56 AM -7.6 °F - -27.4 °F 38% 30.34 in 10.0 mi Calm Calm - N/A   Clear
3:16 AM -7.6 °F -18.8 °F -9.4 °F 92% 30.33 in 10.0 mi SSW 4.6 mph - N/A   Clear
3:36 AM -7.6 °F -16.5 °F -25.6 °F 41% 30.33 in 10.0 mi SSE 3.5 mph - N/A   Clear
3:56 AM -5.8 °F -16.7 °F - N/A% 30.33 in 10.0 mi SE 4.6 mph - N/A   Clear
4:16 AM -5.8 °F - -9.4 °F 84% 30.33 in 10.0 mi Calm Calm - N/A   Clear
4:36 AM -7.6 °F - -16.6 °F 65% 30.33 in 10.0 mi Calm Calm - N/A   Clear
4:56 AM -5.8 °F -14.5 °F -5.8 °F 100% 30.33 in 10.0 mi East 3.5 mph - N/A   Clear
5:16 AM -5.8 °F - -11.2 °F 77% 30.32 in 10.0 mi Calm Calm - N/A   Clear
5:36 AM -5.8 °F - -14.8 °F 65% 30.32 in 10.0 mi Calm Calm - N/A   Clear
5:56 AM -7.6 °F - -11.2 °F 84% 30.32 in 10.0 mi Calm Calm - N/A   Clear
6:16 AM -9.4 °F - -14.8 °F 77% 30.32 in 10.0 mi Calm Calm - N/A   Clear
6:36 AM -9.4 °F - -9.4 °F 100% 30.31 in 10.0 mi Calm Calm - N/A   Clear
6:56 AM -9.4 °F - -18.4 °F 65% 30.32 in 10.0 mi Calm Calm - N/A   Clear
7:16 AM -7.6 °F - -7.6 °F 100% 30.31 in 10.0 mi Calm Calm - N/A   Clear
7:36 AM -9.4 °F -20.9 °F -20.2 °F 59% 30.31 in 10.0 mi South 4.6 mph - N/A   Clear
7:56 AM -7.6 °F -22.1 °F -7.6 °F 100% 30.31 in 10.0 mi SSE 6.9 mph - N/A   Clear
8:16 AM -7.6 °F -20.6 °F -18.4 °F 59% 30.31 in 10.0 mi SE 5.8 mph - N/A   Clear
8:36 AM -7.6 °F -18.8 °F -11.2 °F 84% 30.31 in 10.0 mi SE 4.6 mph - N/A   Clear
8:56 AM -7.6 °F -18.8 °F -11.2 °F 84% 30.31 in 10.0 mi SSE 4.6 mph - N/A   Clear
9:16 AM -9.4 °F -20.9 °F -18.4 °F 65% 30.31 in 10.0 mi SSE 4.6 mph - N/A   Clear
9:36 AM -9.4 °F -22.7 °F -9.4 °F 100% 30.31 in 10.0 mi South 5.8 mph - N/A   Clear
9:56 AM -9.4 °F -22.7 °F -18.4 °F 65% 30.31 in 10.0 mi SSE 5.8 mph - N/A   Clear
10:16 AM -9.4 °F -20.9 °F -11.2 °F 92% 30.31 in 10.0 mi SSE 4.6 mph - N/A   Clear
10:36 AM -9.4 °F -22.7 °F -18.4 °F 65% 30.30 in 10.0 mi SE 5.8 mph - N/A   Clear
10:56 AM -11.2 °F - -14.8 °F 84% 30.30 in 10.0 mi Calm Calm - N/A   Clear
11:16 AM -9.4 °F -18.6 °F -14.8 °F 77% 30.30 in 10.0 mi South 3.5 mph - N/A   Clear
11:36 AM -11.2 °F -23.0 °F -16.6 °F 77% 30.30 in 10.0 mi South 4.6 mph - N/A   Clear
11:56 AM -9.4 °F -22.7 °F -14.8 °F 77% 30.30 in 10.0 mi SSE 5.8 mph - N/A   Clear
12:16 PM -9.4 °F -20.9 °F -14.8 °F 77% 30.31 in 10.0 mi SE 4.6 mph - N/A   Clear
12:36 PM -9.4 °F -20.9 °F -14.8 °F 77% 30.31 in 10.0 mi SSE 4.6 mph - N/A   Clear
12:56 PM -9.4 °F -20.9 °F -14.8 °F 77% 30.30 in 10.0 mi SSE 4.6 mph - N/A   Clear
1:16 PM -9.4 °F -20.9 °F -14.8 °F 77% 30.30 in 10.0 mi SSE 4.6 mph - N/A   Mostly Cloudy
1:36 PM -7.6 °F -20.6 °F -13.0 °F 77% 30.29 in 8.0 mi SSE 5.8 mph - N/A   Overcast
1:56 PM -7.6 °F -20.6 °F -14.8 °F 71% 30.29 in 10.0 mi SSE 5.8 mph - N/A   Overcast
2:16 PM -7.6 °F -23.4 °F -11.2 °F 84% 30.29 in 10.0 mi SSE 8.1 mph - N/A   Overcast
2:36 PM -7.6 °F -18.8 °F -13.0 °F 77% 30.29 in 10.0 mi SE 4.6 mph - N/A   Overcast
2:56 PM -7.6 °F -23.4 °F -11.2 °F 84% 30.29 in 10.0 mi SSE 8.1 mph - N/A   Overcast
3:16 PM -7.6 °F -16.5 °F -14.8 °F 71% 30.28 in 10.0 mi SSE 3.5 mph - N/A   Partly Cloudy
3:36 PM -7.6 °F -18.8 °F -14.8 °F 71% 30.28 in 10.0 mi SSE 4.6 mph - N/A   Clear
3:56 PM -9.4 °F -22.7 °F -14.8 °F 77% 30.28 in 10.0 mi SSE 5.8 mph - N/A   Clear
4:16 PM -9.4 °F -18.6 °F -16.6 °F 71% 30.27 in 10.0 mi ESE 3.5 mph - N/A   Clear
4:36 PM -9.4 °F -18.6 °F -16.6 °F 71% 30.28 in 10.0 mi ESE 3.5 mph - N/A   Clear
4:56 PM -9.4 °F -22.7 °F -14.8 °F 77% 30.27 in 10.0 mi SE 5.8 mph - N/A   Clear
5:16 PM -9.4 °F -18.6 °F -20.2 °F 59% 30.28 in 10.0 mi SSE 3.5 mph - N/A   Clear
5:36 PM -11.2 °F -20.6 °F -20.2 °F 64% 30.28 in 10.0 mi SSE 3.5 mph - N/A   Clear
5:56 PM -11.2 °F - -16.6 °F 77% 30.27 in 10.0 mi Calm Calm - N/A   Clear
6:16 PM -11.2 °F - -18.4 °F 70% 30.27 in 10.0 mi Calm Calm - N/A   Clear
6:36 PM -11.2 °F - -18.4 °F 70% 30.27 in 10.0 mi Calm Calm - N/A   Clear
6:56 PM -11.2 °F -20.6 °F -20.2 °F 64% 30.27 in 10.0 mi ESE 3.5 mph - N/A   Clear
7:16 PM -11.2 °F - -16.6 °F 77% 30.27 in 10.0 mi Calm Calm - N/A   Clear
7:36 PM -13.0 °F - -18.4 °F 77% 30.27 in 10.0 mi Calm Calm - N/A   Clear
7:56 PM -13.0 °F - -23.8 °F 59% 30.26 in 10.0 mi Calm Calm - N/A   Clear
8:16 PM -11.2 °F - -11.2 °F 100% 30.26 in 10.0 mi Calm Calm - N/A   Clear
8:36 PM -13.0 °F -22.7 °F - N/A% 30.25 in 10.0 mi SE 3.5 mph - N/A   Clear
8:56 PM - - - N/A% 30.25 in 10.0 mi Calm Calm - N/A   Clear
9:16 PM -13.0 °F - -18.4 °F 77% 30.25 in 10.0 mi Calm Calm - N/A   Clear
9:36 PM -11.2 °F - - N/A% 30.25 in 10.0 mi Calm Calm - N/A   Clear
9:56 PM -14.8 °F - -25.6 °F 58% 30.24 in 10.0 mi Calm Calm - N/A   Clear
10:16 PM -16.6 °F - -23.8 °F 70% 30.24 in 10.0 mi Calm Calm - N/A   Clear
10:36 PM -16.6 °F - -23.8 °F 70% 30.24 in 10.0 mi Calm Calm - N/A   Clear
10:56 PM -16.6 °F - -20.2 °F 84% 30.24 in 10.0 mi Calm Calm - N/A   Clear
11:16 PM -16.6 °F - -20.2 °F 84% 30.24 in 10.0 mi Calm Calm - N/A   Clear
11:36 PM -16.6 °F - -20.2 °F 84% 30.24 in 10.0 mi Calm Calm - N/A   Clear
11:56 PM -16.6 °F - -22.0 °F 76% 30.24 in 10.0 mi Calm Calm - N/A   Clear